Prescott, AZ

5:54 AM MST on May 23, 2017 (GMT -0700)
Love

Weather History for KPRC - June, 2013

Change the Weather History Date:

Friday, June 21, 2013

  Actual Average Record
Temperature  
Mean Temperature 71 °F 72 °F  
Max Temperature 87 °F 88 °F 100 °F (1990)
Min Temperature 54 °F 57 °F 45 °F (1965)
Degree Days  
Heating Degree Days 0    
Month to date heating degree days 0  
Since 1 July heating degree days 3911  
Cooling Degree Days 6    
Month to date cooling degree days 203  
Year to date cooling degree days 246  
Growing Degree Days 20 (Base 50)    
Moisture  
Dew Point 22 °F    
Average Humidity 16    
Maximum Humidity 35    
Minimum Humidity 6    
Precipitation  
Precipitation 0.00 in 0.01 in 0.78 in (2000)
Month to date precipitation T 0.21  
Year to date precipitation 2.51 4.75  
Sea Level Pressure  
Sea Level Pressure 29.78 in    
Wind  
Wind Speed 9 mph (South)    
Max Wind Speed 22 mph    
Max Gust Speed 29 mph    
Visibility 10 miles    
Events      
T = Trace of Precipitation, MM = Missing Value Source: NWS Daily Summary

Daily Weather History Graph

Daily Weather History Graph

Search for Another Location

Airport or City:

Trip Planner

Search our weather history database for the weather conditions in past years. The results will help you decide how hot, cold, wet, or windy it might be!

Date:

Astronomy

Jun. 21, 2013 Rise Set
Actual Time 5:17 AM MST 7:46 PM MST
Civil Twilight 4:47 AM MST 8:15 PM MST
Nautical Twilight 4:11 AM MST 8:52 PM MST
Astronomical Twilight 3:30 AM MST 9:32 PM MST
Moon 6:03 PM MST (6/21) 3:32 AM MST (6/21)
Length of Visible Light 15h 27m
Length of Day
14h 28m
Waxing Gibbous, 96% of the Moon is Illuminated
Jun 21
Waxing Gibbous
Jun 23
Full
Jun 29
Last Quarter
Jul 8
New
Jul 15
First Quarter

Hourly Weather History & Observations

Time (MST) Temp. Dew Point Humidity Pressure Visibility Wind Dir Wind Speed Gust Speed Precip Events Conditions
12:53 AM 60.1 °F 30.9 °F 33% 29.78 in 10.0 mi South 4.6 mph - N/A   Clear
1:53 AM 60.1 °F 30.0 °F 32% 29.77 in 10.0 mi SSW 8.1 mph - N/A   Clear
2:53 AM 60.1 °F 26.1 °F 27% 29.77 in 10.0 mi South 4.6 mph - N/A   Clear
3:53 AM 57.0 °F 28.9 °F 34% 29.78 in 10.0 mi South 6.9 mph - N/A   Clear
4:53 AM 55.9 °F 28.0 °F 34% 29.79 in 10.0 mi South 9.2 mph - N/A   Clear
5:53 AM 57.9 °F 23.0 °F 26% 29.80 in 10.0 mi SSW 9.2 mph - N/A   Clear
6:53 AM 64.9 °F 25.0 °F 22% 29.80 in 10.0 mi Calm Calm - N/A   Clear
7:53 AM 73.9 °F 26.1 °F 17% 29.80 in 10.0 mi SE 6.9 mph - N/A   Clear
8:53 AM 78.1 °F 25.0 °F 14% 29.79 in 10.0 mi ESE 8.1 mph - N/A   Clear
9:53 AM 82.0 °F 19.9 °F 10% 29.79 in 10.0 mi SSW 10.4 mph 17.3 mph N/A   Clear
10:53 AM 82.9 °F 19.9 °F 10% 29.81 in 10.0 mi South 15.0 mph 21.9 mph N/A   Clear
11:53 AM 84.0 °F 19.9 °F 9% 29.81 in 9.0 mi South 15.0 mph 21.9 mph N/A   Clear
12:53 PM 82.9 °F 21.0 °F 10% 29.83 in 10.0 mi SSW 12.7 mph 21.9 mph N/A   Clear
1:53 PM 84.9 °F 21.0 °F 10% 29.80 in 10.0 mi SSW 15.0 mph 23.0 mph N/A   Clear
2:53 PM 86.0 °F 19.9 °F 9% 29.78 in 10.0 mi South 16.1 mph 25.3 mph N/A   Clear
3:53 PM 86.0 °F 19.0 °F 8% 29.78 in 10.0 mi SSW 16.1 mph 23.0 mph N/A   Clear
4:53 PM 86.0 °F 14.0 °F 7% 29.77 in 10.0 mi SW 17.3 mph 25.3 mph N/A   Clear
5:53 PM 84.0 °F 12.9 °F 7% 29.76 in 10.0 mi SW 16.1 mph 21.9 mph N/A   Clear
6:53 PM 81.0 °F 18.0 °F 10% 29.75 in 10.0 mi Variable 4.6 mph 19.6 mph N/A   Clear
7:53 PM 78.1 °F 18.0 °F 10% 29.74 in 10.0 mi Calm Calm - N/A   Clear
8:53 PM 78.1 °F 17.1 °F 10% 29.73 in 10.0 mi SE 6.9 mph - N/A   Clear
9:53 PM 73.9 °F 21.9 °F 14% 29.74 in 10.0 mi South 8.1 mph - N/A   Clear
10:53 PM 73.9 °F 21.9 °F 14% 29.74 in 10.0 mi Variable 4.6 mph - N/A   Clear
11:53 PM 72.0 °F 21.9 °F 15% 29.75 in 10.0 mi South 5.8 mph - N/A   Clear